Skagway, AK

3:02 AM AKDT on September 30, 2016 (GMT -0800)
Skagway

Weather History for PAGY - September, 2011

Change the Weather History Date:

Tuesday, September 6, 2011

  Actual Average Record
Temperature  
Mean Temperature 52 °F -  
Max Temperature 57 °F 56 °F 74 °F (1986)
Min Temperature 46 °F 45 °F 39 °F (1987)
Degree Days  
Heating Degree Days 14    
Growing Degree Days 2 (Base 50)    
Moisture  
Dew Point 47 °F    
Average Humidity 84    
Maximum Humidity 100    
Minimum Humidity 66    
Precipitation  
Precipitation 0.71 in - - ()
Sea Level Pressure  
Sea Level Pressure 29.48 in    
Wind  
Wind Speed 7 mph (SSW)    
Max Wind Speed 24 mph    
Max Gust Speed 34 mph    
Visibility 8 miles    
Events Rain    
Averages and records for this station are not official NWS values.
T = Trace of Precipitation, MM = Missing Value Source: NWS Daily Summary

Daily Weather History Graph

Daily Weather History Graph

Search for Another Location

Airport or City:

Trip Planner

Search our weather history database for the weather conditions in past years. The results will help you decide how hot, cold, wet, or windy it might be!

Date:

Astronomy

Sep. 06, 2011 Rise Set
Actual Time 6:08 AM AKDT 7:48 PM AKDT
Civil Twilight 5:25 AM AKDT 8:31 PM AKDT
Nautical Twilight 4:31 AM AKDT 9:25 PM AKDT
Astronomical Twilight 3:25 AM AKDT 10:30 PM AKDT
Moon 5:35 PM AKDT (9/6) No Moon Set
Length of Visible Light 15h 05m
Length of Day
13h 39m
Waxing Gibbous, 72% of the Moon is Illuminated
Sep 6
Waxing Gibbous
Sep 12
Full
Sep 20
Last Quarter
Sep 27
New
Oct 3
First Quarter

Hourly Weather History & Observations

Time (AKDT) Temp. Dew Point Humidity Pressure Visibility Wind Dir Wind Speed Gust Speed Precip Events Conditions
12:40 AM 48.2 °F 46.4 °F 93% 29.33 in 2.5 mi Calm Calm - 0.16 in Rain Heavy Rain
12:53 AM 46.9 °F 46.0 °F 97% 29.32 in 3.0 mi WSW 3.5 mph - 0.21 in Rain Rain
1:17 AM 48.2 °F 46.4 °F 93% 29.33 in 3.0 mi Calm Calm - 0.06 in Rain Rain
1:36 AM 48.2 °F 46.4 °F 93% 29.34 in 2.5 mi ENE 4.6 mph - 0.14 in Rain Rain
1:46 AM 48.2 °F 46.4 °F 93% 29.34 in 3.0 mi NNE 3.5 mph - 0.17 in Rain Rain
1:53 AM 48.0 °F 46.9 °F 96% 29.35 in 5.0 mi Calm Calm - 0.17 in Rain Light Rain
2:23 AM 48.2 °F 46.4 °F 93% 29.34 in 10.0 mi Calm Calm - 0.01 in Rain Light Rain
2:39 AM 48.2 °F 46.4 °F 93% 29.33 in 10.0 mi Calm Calm - 0.01 in   Overcast
2:53 AM 46.9 °F 46.0 °F 97% 29.34 in 10.0 mi Calm Calm - 0.01 in   Overcast
3:53 AM 46.9 °F 46.0 °F 97% 29.35 in 10.0 mi Calm Calm - N/A   Overcast
4:53 AM 46.9 °F 46.9 °F 100% 29.36 in 10.0 mi Calm Calm - 0.02 in Rain Light Rain
5:53 AM 50.0 °F 48.0 °F 93% 29.36 in 10.0 mi NE 6.9 mph - 0.00 in Rain Light Rain
6:53 AM 55.0 °F 46.0 °F 72% 29.37 in 10.0 mi SSW 11.5 mph 19.6 mph 0.01 in   Overcast
7:53 AM 55.0 °F 46.0 °F 72% 29.38 in 10.0 mi SSW 18.4 mph - 0.00 in Rain Light Rain
8:53 AM 54.0 °F 46.0 °F 75% 29.40 in 10.0 mi SSW 21.9 mph 34.5 mph 0.01 in Rain Light Rain
9:53 AM 55.9 °F 46.0 °F 69% 29.42 in 10.0 mi SSW 13.8 mph 21.9 mph 0.02 in   Overcast
10:53 AM 54.0 °F 46.9 °F 77% 29.45 in 10.0 mi SSW 18.4 mph 26.5 mph 0.01 in Rain Light Rain
11:53 AM 54.0 °F 46.9 °F 77% 29.47 in 8.0 mi SSW 24.2 mph 32.2 mph 0.01 in Rain Light Rain
12:53 PM 55.0 °F 46.0 °F 72% 29.48 in 10.0 mi SSW 17.3 mph 28.8 mph 0.00 in Rain Light Rain
1:53 PM 55.9 °F 48.0 °F 75% 29.50 in 10.0 mi SSW 16.1 mph 23.0 mph 0.01 in   Mostly Cloudy
2:53 PM 57.0 °F 46.0 °F 67% 29.52 in 10.0 mi SSW 18.4 mph - N/A   Partly Cloudy
3:53 PM 53.1 °F 48.0 °F 83% 29.55 in 5.0 mi SSW 18.4 mph 31.1 mph 0.02 in Rain Rain
4:53 PM 52.0 °F 48.9 °F 89% 29.58 in 2.0 mi SSW 20.7 mph 27.6 mph 0.08 in Rain Heavy Rain
5:08 PM 53.6 °F 48.2 °F 82% 29.57 in 4.0 mi SSW 13.8 mph 24.2 mph 0.04 in Rain Rain
5:53 PM 53.1 °F 48.9 °F 86% 29.59 in 10.0 mi SSW 13.8 mph 23.0 mph 0.06 in   Mostly Cloudy
6:53 PM 53.1 °F 46.0 °F 77% 29.61 in 10.0 mi SSW 11.5 mph 19.6 mph 0.00 in   Overcast
7:53 PM 50.0 °F 46.9 °F 89% 29.65 in 10.0 mi NE 8.1 mph - N/A   Overcast
8:53 PM 53.1 °F 45.0 °F 74% 29.68 in 10.0 mi Variable 6.9 mph - N/A   Overcast
9:53 PM 54.0 °F 43.0 °F 66% 29.70 in 10.0 mi South 6.9 mph 21.9 mph 0.00 in   Mostly Cloudy
10:53 PM 53.1 °F 46.9 °F 80% 29.73 in 10.0 mi SSW 16.1 mph 24.2 mph 0.01 in Rain Light Rain
11:48 PM 51.8 °F 48.2 °F 88% 29.76 in 8.0 mi SSW 12.7 mph 20.7 mph 0.06 in Rain Light Rain
11:53 PM 52.0 °F 48.9 °F 89% 29.77 in 9.0 mi SSW 12.7 mph 24.2 mph 0.06 in Rain Light Rain